Weather History for Ely, MN

Change the Weather History Date:

Friday, July 5, 2013

  Actual Average Record
Temperature  
Mean Temperature 75 °F -  
Max Temperature 84 °F 73 °F 86 °F (1996)
Min Temperature 66 °F 51 °F 35 °F (2001)
Cooling Degree Days 10    
Growing Degree Days 25 (Base 50)    
Moisture  
Dew Point 57 °F    
Average Humidity 54    
Maximum Humidity 69    
Minimum Humidity 37    
Precipitation  
Precipitation 0.00 in - - ()
Sea Level Pressure  
Sea Level Pressure 29.81 in    
Wind  
Wind Speed 9 mph (SSW)    
Max Wind Speed 17 mph    
Max Gust Speed 30 mph    
Visibility 10 miles    
Events      
Averages and records for this station are not official NWS values.
T = Trace of Precipitation, MM = Missing Value Source: NWS Daily Summary

Daily Weather History Graph

Daily Weather History Graph

Search for Another Location

Airport:

Trip Planner

Search our weather history database for the weather conditions in past years. The results will help you decide how hot, cold, wet, or windy it might be!

Date:

Astronomy

Jul. 05, 2013 Rise Set
Actual Time 5:15 AM CDT 9:08 PM CDT
Civil Twilight 4:35 AM CDT 9:48 PM CDT
Nautical Twilight 3:39 AM CDT 10:43 PM CDT
Astronomical Twilight 2:15 AM CDT 12:06 AM CDT
Moon 3:19 AM CDT (7/5) 6:59 PM CDT (7/5)
Length of Visible Light 17h 12m
Length of Day
15h 52m
Waning Crescent, 6% of the Moon is Illuminated
Jul 5
Waning Crescent
Jul 8
New
Jul 15
First Quarter
Jul 22
Full
Jul 29
Last Quarter

Hourly Weather History & Observations

Time (CDT) Temp. Heat Index Dew Point Humidity Pressure Visibility Wind Dir Wind Speed Gust Speed Precip Events Conditions
12:13 AM 69.8 °F - 57.2 °F 64% 29.85 in 10.0 mi South 5.8 mph - N/A   Clear
12:33 AM 69.8 °F - 57.2 °F 64% 29.85 in 10.0 mi South 6.9 mph - N/A   Clear
12:52 AM 69.8 °F - 55.4 °F 60% 29.85 in 10.0 mi South 10.4 mph - N/A   Clear
1:13 AM 69.8 °F - 55.4 °F 60% 29.85 in 10.0 mi South 6.9 mph - N/A   Clear
1:33 AM 69.8 °F - 55.4 °F 60% 29.85 in 10.0 mi South 6.9 mph - N/A   Clear
1:52 AM 69.8 °F - 55.4 °F 60% 29.85 in 10.0 mi South 5.8 mph - N/A   Clear
2:13 AM 69.8 °F - 55.4 °F 60% 29.85 in 10.0 mi South 5.8 mph - N/A   Clear
2:33 AM 69.8 °F - 55.4 °F 60% 29.85 in 10.0 mi South 8.1 mph - N/A   Clear
2:52 AM 68.0 °F - 55.4 °F 64% 29.85 in 10.0 mi SSW 6.9 mph - N/A   Clear
3:13 AM 68.0 °F - 55.4 °F 64% 29.85 in 10.0 mi SSW 6.9 mph - N/A   Clear
3:33 AM 66.2 °F - 55.4 °F 68% 29.85 in 10.0 mi SSW 6.9 mph - N/A   Clear
3:52 AM 66.2 °F - 55.4 °F 68% 29.85 in 10.0 mi SSW 8.1 mph - N/A   Clear
4:13 AM 66.2 °F - 55.4 °F 68% 29.85 in 10.0 mi SSW 5.8 mph - N/A   Scattered Clouds
4:32 AM 66.2 °F - 55.4 °F 68% 29.85 in 10.0 mi South 6.9 mph - N/A   Scattered Clouds
4:53 AM 66.2 °F - 55.4 °F 68% 29.86 in 10.0 mi SSW 8.1 mph - N/A   Scattered Clouds
5:13 AM 66.2 °F - 55.4 °F 68% 29.85 in 10.0 mi SSW 6.9 mph - N/A   Clear
5:33 AM 68.0 °F - 55.4 °F 64% 29.85 in 10.0 mi SSW 8.1 mph - N/A   Clear
5:53 AM 68.0 °F - 55.4 °F 64% 29.85 in 10.0 mi SSW 8.1 mph - N/A   Clear
6:13 AM 68.0 °F - 55.4 °F 64% 29.85 in 10.0 mi SSW 8.1 mph - N/A   Clear
6:33 AM 68.0 °F - 55.4 °F 64% 29.84 in 10.0 mi SSW 6.9 mph - N/A   Clear
6:53 AM 69.8 °F - 55.4 °F 60% 29.84 in 10.0 mi SSW 5.8 mph - N/A   Clear
7:13 AM 69.8 °F - 55.4 °F 60% 29.84 in 10.0 mi SSW 5.8 mph 9.2 mph N/A   Clear
7:33 AM 71.6 °F - 55.4 °F 57% 29.84 in 10.0 mi SSW 10.4 mph - N/A   Clear
7:53 AM 71.6 °F - 55.4 °F 57% 29.84 in 10.0 mi SSW 10.4 mph - N/A   Clear
8:12 AM 73.4 °F - 57.2 °F 57% 29.84 in 10.0 mi South 9.2 mph - N/A   Clear
8:32 AM 75.2 °F - 57.2 °F 53% 29.84 in 10.0 mi SSW 10.4 mph - N/A   Clear
8:52 AM 73.4 °F - 57.2 °F 57% 29.84 in 10.0 mi SSW 9.2 mph - N/A   Clear
9:13 AM 73.4 °F - 57.2 °F 57% 29.84 in 10.0 mi SSW 12.7 mph 17.3 mph N/A   Clear
9:33 AM 73.4 °F - 57.2 °F 57% 29.84 in 10.0 mi SSW 5.8 mph - N/A   Clear
9:52 AM 77.0 °F - 59.0 °F 54% 29.83 in 10.0 mi SSW 10.4 mph - N/A   Clear
10:13 AM 78.8 °F - 57.2 °F 47% 29.83 in 10.0 mi SSW 10.4 mph - N/A   Clear
10:32 AM 78.8 °F - 57.2 °F 47% 29.83 in 10.0 mi SSW 11.5 mph 23.0 mph N/A   Clear
10:53 AM 78.8 °F - 57.2 °F 47% 29.82 in 10.0 mi South 15.0 mph 20.7 mph N/A   Clear
11:13 AM 80.6 °F 80.5 °F 55.4 °F 42% 29.82 in 10.0 mi SSW 16.1 mph 23.0 mph N/A   Clear
11:33 AM 80.6 °F 80.8 °F 57.2 °F 45% 29.82 in 10.0 mi South 12.7 mph 23.0 mph N/A   Clear
11:53 AM 82.4 °F 81.7 °F 55.4 °F 39% 29.82 in 10.0 mi South 17.3 mph 23.0 mph N/A   Clear
12:13 PM 82.4 °F 81.7 °F 55.4 °F 39% 29.81 in 10.0 mi South 16.1 mph 23.0 mph N/A   Clear
12:33 PM 82.4 °F 81.7 °F 55.4 °F 39% 29.81 in 10.0 mi SSW 13.8 mph 23.0 mph N/A   Clear
12:53 PM 84.2 °F 83.0 °F 55.4 °F 37% 29.81 in 10.0 mi SSW 15.0 mph 21.9 mph N/A   Clear
1:13 PM 82.4 °F 81.7 °F 55.4 °F 39% 29.80 in 10.0 mi SSW 11.5 mph 20.7 mph N/A   Clear
1:33 PM 82.4 °F 81.7 °F 55.4 °F 39% 29.80 in 10.0 mi South 12.7 mph 25.3 mph N/A   Clear
1:53 PM 84.2 °F 83.5 °F 57.2 °F 40% 29.80 in 10.0 mi SSW 15.0 mph 25.3 mph N/A   Clear
2:13 PM 84.2 °F 83.0 °F 55.4 °F 37% 29.79 in 10.0 mi SSW 16.1 mph 29.9 mph N/A   Clear
2:33 PM 82.4 °F 81.7 °F 55.4 °F 39% 29.79 in 10.0 mi SSW 12.7 mph 25.3 mph N/A   Clear
2:53 PM 82.4 °F 81.7 °F 55.4 °F 39% 29.79 in 10.0 mi SSW 16.1 mph 25.3 mph N/A   Clear
3:13 PM 82.4 °F 81.7 °F 55.4 °F 39% 29.79 in 10.0 mi SSW 12.7 mph 20.7 mph N/A   Clear
3:33 PM 82.4 °F 81.7 °F 55.4 °F 39% 29.79 in 10.0 mi South 17.3 mph 25.3 mph N/A   Clear
3:53 PM 84.2 °F 83.5 °F 57.2 °F 40% 29.79 in 10.0 mi SSW 13.8 mph 21.9 mph N/A   Clear
4:13 PM 84.2 °F 83.0 °F 55.4 °F 37% 29.79 in 10.0 mi SW 17.3 mph 27.6 mph N/A   Clear
4:33 PM 82.4 °F 81.7 °F 55.4 °F 39% 29.78 in 10.0 mi South 15.0 mph 23.0 mph N/A   Scattered Clouds
4:53 PM 82.4 °F 82.0 °F 57.2 °F 42% 29.78 in 10.0 mi SSW 11.5 mph 21.9 mph N/A   Scattered Clouds
5:13 PM 82.4 °F 82.0 °F 57.2 °F 42% 29.77 in 10.0 mi South 10.4 mph 17.3 mph N/A   Scattered Clouds
5:32 PM 82.4 °F 82.5 °F 59.0 °F 45% 29.77 in 10.0 mi South 8.1 mph - N/A   Clear
5:53 PM 82.4 °F 82.5 °F 59.0 °F 45% 29.77 in 10.0 mi SSW 11.5 mph 18.4 mph N/A   Clear
6:13 PM 82.4 °F 82.5 °F 59.0 °F 45% 29.78 in 10.0 mi SSW 10.4 mph 21.9 mph N/A   Scattered Clouds
6:33 PM 82.4 °F 82.5 °F 59.0 °F 45% 29.78 in 10.0 mi SSW 9.2 mph 19.6 mph N/A   Scattered Clouds
6:53 PM 80.6 °F 81.1 °F 59.0 °F 48% 29.78 in 10.0 mi SSW 10.4 mph 19.6 mph N/A   Clear
7:12 PM 80.6 °F 81.1 °F 59.0 °F 48% 29.78 in 10.0 mi SSW 9.2 mph - N/A   Scattered Clouds
7:33 PM 80.6 °F 81.5 °F 60.8 °F 51% 29.77 in 10.0 mi SSW 8.1 mph - N/A   Scattered Clouds
7:53 PM 80.6 °F 81.5 °F 60.8 °F 51% 29.77 in 10.0 mi SSW 9.2 mph - N/A   Clear
8:12 PM 80.6 °F 81.5 °F 60.8 °F 51% 29.77 in 10.0 mi South 6.9 mph 16.1 mph N/A   Clear
8:33 PM 78.8 °F - 60.8 °F 54% 29.77 in 10.0 mi South 10.4 mph - N/A   Clear
8:53 PM 78.8 °F - 60.8 °F 54% 29.77 in 10.0 mi South 6.9 mph - N/A   Scattered Clouds
9:12 PM 75.2 °F - 60.8 °F 61% 29.78 in 10.0 mi SSW 4.6 mph - N/A   Clear
9:33 PM 75.2 °F - 60.8 °F 61% 29.78 in 10.0 mi SSW 5.8 mph - N/A   Clear
9:53 PM 73.4 °F - 60.8 °F 65% 29.78 in 10.0 mi South 5.8 mph - N/A   Clear
10:13 PM 73.4 °F - 60.8 °F 65% 29.79 in 10.0 mi SSW 3.5 mph - N/A   Clear
10:33 PM 73.4 °F - 60.8 °F 65% 29.80 in 10.0 mi South 3.5 mph - N/A   Clear
10:53 PM 73.4 °F - 60.8 °F 65% 29.80 in 10.0 mi South 4.6 mph - N/A   Clear
11:13 PM 73.4 °F - 60.8 °F 65% 29.80 in 10.0 mi SSW 8.1 mph - N/A   Scattered Clouds
11:33 PM 73.4 °F - 60.8 °F 65% 29.80 in 10.0 mi SSW 9.2 mph - N/A   Scattered Clouds
11:53 PM 73.4 °F - 62.6 °F 69% 29.81 in 10.0 mi SSW 9.2 mph - N/A   Mostly Cloudy